PWSweather.com
Personal Weather Stations
Station Observations
SEANO
CarmignanoIT

CarmignanoIT

Lat: 43.829667, Lon: 11.02622

Elevation: 142

Station Type: Davis Vantage Pro2

http://www.meteoseano.it

High Low Average
Temperature 95.8°F35.4°C 70.6°F21.4°C 85.9°F29.9°C
Dew Point 71.0°F21.7°C 61.3°F16.3°C 66.6°F19.2°C
Winds 12.7 mph 20.4 kmh Calm Calm 5.0 mph SE8.0 kmh SE
Wind Gusts 19.6 mph31.5 kmh -- 7.0 mph11.3 kmh
Humidity 75% 39% 54%
Pressure 30.16 in1021.3 mb 30.08 in1018.6 mb -
Precipitation 0.00 in0.0 mm - -
Hour Temp Dew Point Humidity Winds Wind Gusts Pressure Precip Precip Rate Daily Precip Total
12:00 AM 80.6°F27.0°C 65.9°F18.8°C 61% 1.2 mph SE1.9 kmh SE 1.2 mph1.9 kmh 30.15 in1021.0 mb - 0.00 in0.0 mm 0.00 in0.0 mm
12:10 AM 79.9°F26.6°C 65.7°F18.7°C 62% Calm Calm 2.3 mph3.7 kmh 30.15 in1021.0 mb - 0.00 in0.0 mm 0.00 in0.0 mm
12:15 AM 79.7°F26.5°C 66.0°F18.9°C 63% Calm Calm -- 30.15 in1021.0 mb - 0.00 in0.0 mm 0.00 in0.0 mm
12:20 AM 79.4°F26.3°C 65.7°F18.7°C 63% 3.5 mph S5.6 kmh S 4.6 mph7.4 kmh 30.15 in1021.0 mb - 0.00 in0.0 mm 0.00 in0.0 mm
12:25 AM 79.1°F26.2°C 65.9°F18.8°C 64% 3.5 mph S5.6 kmh S 3.5 mph5.6 kmh 30.15 in1021.0 mb - 0.00 in0.0 mm 0.00 in0.0 mm
12:30 AM 78.8°F26.0°C 65.6°F18.7°C 64% 3.5 mph WSW5.6 kmh WSW 4.6 mph7.4 kmh 30.15 in1021.0 mb - 0.00 in0.0 mm 0.00 in0.0 mm
12:35 AM 78.5°F25.8°C 65.8°F18.8°C 65% 3.5 mph WSW5.6 kmh WSW 3.5 mph5.6 kmh 30.15 in1021.0 mb - 0.00 in0.0 mm 0.00 in0.0 mm
12:40 AM 78.2°F25.7°C 65.5°F18.6°C 65% 3.5 mph SW5.6 kmh SW 3.5 mph5.6 kmh 30.15 in1021.0 mb - 0.00 in0.0 mm 0.00 in0.0 mm
12:45 AM 77.8°F25.4°C 65.6°F18.7°C 66% 2.3 mph WSW3.7 kmh WSW 2.3 mph3.7 kmh 30.15 in1021.0 mb - 0.00 in0.0 mm 0.00 in0.0 mm
12:50 AM 77.5°F25.3°C 65.3°F18.5°C 66% 3.5 mph SW5.6 kmh SW 4.6 mph7.4 kmh 30.15 in1021.0 mb - 0.00 in0.0 mm 0.00 in0.0 mm
12:55 AM 77.4°F25.2°C 65.6°F18.7°C 67% 1.2 mph SW1.9 kmh SW 1.2 mph1.9 kmh 30.15 in1021.0 mb - 0.00 in0.0 mm 0.00 in0.0 mm
01:00 AM 77.5°F25.3°C 65.2°F18.4°C 66% 1.2 mph SSE1.9 kmh SSE 5.8 mph9.3 kmh 30.15 in1021.0 mb - 0.00 in0.0 mm 0.00 in0.0 mm
01:10 AM 77.6°F25.3°C 65.4°F18.6°C 66% Calm Calm 2.3 mph3.7 kmh 30.15 in1021.0 mb - 0.00 in0.0 mm 0.00 in0.0 mm
01:15 AM 77.7°F25.4°C 65.4°F18.6°C 66% Calm Calm 1.2 mph1.9 kmh 30.15 in1021.0 mb - 0.00 in0.0 mm 0.00 in0.0 mm
01:20 AM 77.5°F25.3°C 65.3°F18.5°C 66% 3.5 mph S5.6 kmh S 4.6 mph7.4 kmh 30.15 in1021.0 mb - 0.00 in0.0 mm 0.00 in0.0 mm
01:25 AM 77.3°F25.2°C 65.1°F18.4°C 66% 3.5 mph SW5.6 kmh SW 4.6 mph7.4 kmh 30.15 in1021.0 mb - 0.00 in0.0 mm 0.00 in0.0 mm
01:30 AM 77.0°F25.0°C 64.8°F18.2°C 66% 4.6 mph SW7.4 kmh SW 4.6 mph7.4 kmh 30.15 in1021.0 mb - 0.00 in0.0 mm 0.00 in0.0 mm
01:35 AM 76.7°F24.8°C 64.9°F18.3°C 67% 3.5 mph SW5.6 kmh SW 3.5 mph5.6 kmh 30.15 in1021.0 mb - 0.00 in0.0 mm 0.00 in0.0 mm
01:40 AM 76.5°F24.7°C 64.7°F18.2°C 67% 3.5 mph SW5.6 kmh SW 3.5 mph5.6 kmh 30.15 in1021.0 mb - 0.00 in0.0 mm 0.00 in0.0 mm
01:45 AM 76.3°F24.6°C 65.0°F18.3°C 68% 1.2 mph SW1.9 kmh SW 3.5 mph5.6 kmh 30.15 in1021.0 mb - 0.00 in0.0 mm 0.00 in0.0 mm
01:50 AM 76.0°F24.4°C 64.7°F18.2°C 68% 3.5 mph SW5.6 kmh SW 3.5 mph5.6 kmh 30.15 in1021.0 mb - 0.00 in0.0 mm 0.00 in0.0 mm
01:55 AM 75.7°F24.3°C 64.8°F18.2°C 69% 1.2 mph SW1.9 kmh SW 2.3 mph3.7 kmh 30.15 in1021.0 mb - 0.00 in0.0 mm 0.00 in0.0 mm
02:00 AM 75.5°F24.2°C 64.2°F17.9°C 68% 3.5 mph SW5.6 kmh SW 4.6 mph7.4 kmh 30.15 in1021.0 mb - 0.00 in0.0 mm 0.00 in0.0 mm
02:10 AM 74.9°F23.8°C 64.1°F17.8°C 69% Calm Calm 1.2 mph1.9 kmh 30.15 in1021.0 mb - 0.00 in0.0 mm 0.00 in0.0 mm
02:15 AM 74.8°F23.8°C 64.0°F17.8°C 69% 3.5 mph SW5.6 kmh SW 4.6 mph7.4 kmh 30.15 in1021.0 mb - 0.00 in0.0 mm 0.00 in0.0 mm
02:20 AM 74.7°F23.7°C 63.9°F17.7°C 69% 2.3 mph SW3.7 kmh SW 2.3 mph3.7 kmh 30.15 in1021.0 mb - 0.00 in0.0 mm 0.00 in0.0 mm
02:25 AM 74.5°F23.6°C 63.7°F17.6°C 69% 2.3 mph SW3.7 kmh SW 3.5 mph5.6 kmh 30.15 in1021.0 mb - 0.00 in0.0 mm 0.00 in0.0 mm
02:30 AM 74.4°F23.6°C 64.0°F17.8°C 70% 2.3 mph SW3.7 kmh SW 3.5 mph5.6 kmh 30.15 in1021.0 mb - 0.00 in0.0 mm 0.00 in0.0 mm
02:35 AM 74.2°F23.4°C 63.8°F17.7°C 70% 2.3 mph SW3.7 kmh SW 3.5 mph5.6 kmh 30.15 in1021.0 mb - 0.00 in0.0 mm 0.00 in0.0 mm
02:40 AM 74.0°F23.3°C 63.6°F17.6°C 70% 1.2 mph SW1.9 kmh SW 2.3 mph3.7 kmh 30.15 in1021.0 mb - 0.00 in0.0 mm 0.00 in0.0 mm
02:45 AM 73.8°F23.2°C 63.4°F17.4°C 70% 1.2 mph SW1.9 kmh SW 3.5 mph5.6 kmh 30.15 in1021.0 mb - 0.00 in0.0 mm 0.00 in0.0 mm
02:50 AM 73.6°F23.1°C 63.2°F17.3°C 70% 1.2 mph SW1.9 kmh SW -- 30.14 in1020.7 mb - 0.00 in0.0 mm 0.00 in0.0 mm
02:55 AM 73.5°F23.1°C 63.2°F17.3°C 70% 2.3 mph SW3.7 kmh SW 3.5 mph5.6 kmh 30.14 in1020.7 mb - 0.00 in0.0 mm 0.00 in0.0 mm
03:00 AM 73.4°F23.0°C 63.0°F17.2°C 70% 3.5 mph S5.6 kmh S 4.6 mph7.4 kmh 30.14 in1020.7 mb - 0.00 in0.0 mm 0.00 in0.0 mm
03:10 AM 73.2°F22.9°C 62.8°F17.1°C 70% 1.2 mph NW1.9 kmh NW 2.3 mph3.7 kmh 30.14 in1020.7 mb - 0.00 in0.0 mm 0.00 in0.0 mm
03:15 AM 73.2°F22.9°C 63.2°F17.3°C 71% 1.2 mph NW1.9 kmh NW 3.5 mph5.6 kmh 30.14 in1020.7 mb - 0.00 in0.0 mm 0.00 in0.0 mm
03:20 AM 73.1°F22.8°C 62.7°F17.1°C 70% 1.2 mph NW1.9 kmh NW 3.5 mph5.6 kmh 30.14 in1020.7 mb - 0.00 in0.0 mm 0.00 in0.0 mm
03:25 AM 73.1°F22.8°C 63.1°F17.3°C 71% Calm Calm -- 30.14 in1020.7 mb - 0.00 in0.0 mm 0.00 in0.0 mm
03:30 AM 73.1°F22.8°C 62.7°F17.1°C 70% 2.3 mph NW3.7 kmh NW 3.5 mph5.6 kmh 30.14 in1020.7 mb - 0.00 in0.0 mm 0.00 in0.0 mm
03:35 AM 73.0°F22.8°C 62.6°F17.0°C 70% 3.5 mph WNW5.6 kmh WNW 3.5 mph5.6 kmh 30.14 in1020.7 mb - 0.00 in0.0 mm 0.00 in0.0 mm
03:40 AM 72.9°F22.7°C 62.5°F16.9°C 70% Calm Calm 2.3 mph3.7 kmh 30.15 in1021.0 mb - 0.00 in0.0 mm 0.00 in0.0 mm
03:45 AM 72.8°F22.7°C 62.4°F16.9°C 70% 1.2 mph WNW1.9 kmh WNW 3.5 mph5.6 kmh 30.15 in1021.0 mb - 0.00 in0.0 mm 0.00 in0.0 mm
03:50 AM 72.6°F22.6°C 62.3°F16.8°C 70% Calm Calm 1.2 mph1.9 kmh 30.14 in1020.7 mb - 0.00 in0.0 mm 0.00 in0.0 mm
03:55 AM 72.5°F22.5°C 62.2°F16.8°C 70% 1.2 mph WNW1.9 kmh WNW 2.3 mph3.7 kmh 30.14 in1020.7 mb - 0.00 in0.0 mm 0.00 in0.0 mm
04:00 AM 72.4°F22.4°C 62.4°F16.9°C 71% 1.2 mph WNW1.9 kmh WNW 2.3 mph3.7 kmh 30.14 in1020.7 mb - 0.00 in0.0 mm 0.00 in0.0 mm
04:10 AM 72.0°F22.2°C 62.0°F16.7°C 71% Calm Calm -- 30.15 in1021.0 mb - 0.00 in0.0 mm 0.00 in0.0 mm
04:15 AM 71.8°F22.1°C 61.9°F16.6°C 71% Calm Calm -- 30.15 in1021.0 mb - 0.00 in0.0 mm 0.00 in0.0 mm
04:20 AM 71.7°F22.1°C 61.8°F16.6°C 71% 1.2 mph WNW1.9 kmh WNW 1.2 mph1.9 kmh 30.15 in1021.0 mb - 0.00 in0.0 mm 0.00 in0.0 mm
04:25 AM 71.6°F22.0°C 62.1°F16.7°C 72% Calm Calm 1.2 mph1.9 kmh 30.15 in1021.0 mb - 0.00 in0.0 mm 0.00 in0.0 mm
04:30 AM 71.4°F21.9°C 61.9°F16.6°C 72% 1.2 mph WNW1.9 kmh WNW 2.3 mph3.7 kmh 30.15 in1021.0 mb - 0.00 in0.0 mm 0.00 in0.0 mm
04:35 AM 71.2°F21.8°C 61.7°F16.5°C 72% 2.3 mph WNW3.7 kmh WNW 3.5 mph5.6 kmh 30.15 in1021.0 mb - 0.00 in0.0 mm 0.00 in0.0 mm
04:40 AM 71.1°F21.7°C 61.6°F16.4°C 72% Calm Calm 1.2 mph1.9 kmh 30.15 in1021.0 mb - 0.00 in0.0 mm 0.00 in0.0 mm
04:45 AM 71.0°F21.7°C 61.5°F16.4°C 72% Calm Calm 2.3 mph3.7 kmh 30.15 in1021.0 mb - 0.00 in0.0 mm 0.00 in0.0 mm
04:50 AM 70.9°F21.6°C 61.4°F16.3°C 72% 1.2 mph WNW1.9 kmh WNW 2.3 mph3.7 kmh 30.15 in1021.0 mb - 0.00 in0.0 mm 0.00 in0.0 mm
04:55 AM 70.8°F21.6°C 61.3°F16.3°C 72% 1.2 mph WNW1.9 kmh WNW 2.3 mph3.7 kmh 30.15 in1021.0 mb - 0.00 in0.0 mm 0.00 in0.0 mm
05:00 AM 70.7°F21.5°C 61.6°F16.4°C 73% 1.2 mph WNW1.9 kmh WNW 3.5 mph5.6 kmh 30.15 in1021.0 mb - 0.00 in0.0 mm 0.00 in0.0 mm
05:10 AM 70.6°F21.4°C 61.6°F16.4°C 73% Calm Calm -- 30.15 in1021.0 mb - 0.00 in0.0 mm 0.00 in0.0 mm
05:15 AM 70.7°F21.5°C 61.6°F16.4°C 73% 1.2 mph WNW1.9 kmh WNW 2.3 mph3.7 kmh 30.15 in1021.0 mb - 0.00 in0.0 mm 0.00 in0.0 mm
05:20 AM 70.8°F21.6°C 62.1°F16.7°C 74% Calm Calm 1.2 mph1.9 kmh 30.15 in1021.0 mb - 0.00 in0.0 mm 0.00 in0.0 mm
05:25 AM 70.9°F21.6°C 62.2°F16.8°C 74% Calm Calm -- 30.15 in1021.0 mb - 0.00 in0.0 mm 0.00 in0.0 mm
05:30 AM 71.0°F21.7°C 62.3°F16.8°C 74% Calm Calm -- 30.15 in1021.0 mb - 0.00 in0.0 mm 0.00 in0.0 mm
05:35 AM 71.2°F21.8°C 62.5°F16.9°C 74% Calm Calm -- 30.15 in1021.0 mb - 0.00 in0.0 mm 0.00 in0.0 mm
05:40 AM 71.4°F21.9°C 63.1°F17.3°C 75% 1.2 mph W1.9 kmh W 1.2 mph1.9 kmh 30.15 in1021.0 mb - 0.00 in0.0 mm 0.00 in0.0 mm
05:45 AM 71.7°F22.1°C 62.9°F17.2°C 74% 1.2 mph W1.9 kmh W 2.3 mph3.7 kmh 30.15 in1021.0 mb - 0.00 in0.0 mm 0.00 in0.0 mm
05:50 AM 72.1°F22.3°C 62.9°F17.2°C 73% 1.2 mph W1.9 kmh W 1.2 mph1.9 kmh 30.16 in1021.3 mb - 0.00 in0.0 mm 0.00 in0.0 mm
05:55 AM 72.5°F22.5°C 63.0°F17.2°C 72% 1.2 mph W1.9 kmh W 2.3 mph3.7 kmh 30.15 in1021.0 mb - 0.00 in0.0 mm 0.00 in0.0 mm
06:00 AM 73.1°F22.8°C 63.9°F17.7°C 73% Calm Calm -- 30.15 in1021.0 mb - 0.00 in0.0 mm 0.00 in0.0 mm
06:10 AM 73.9°F23.3°C 64.3°F17.9°C 72% Calm Calm 1.2 mph1.9 kmh 30.15 in1021.0 mb - 0.00 in0.0 mm 0.00 in0.0 mm
06:15 AM 74.6°F23.7°C 64.9°F18.3°C 72% Calm Calm 1.2 mph1.9 kmh 30.15 in1021.0 mb - 0.00 in0.0 mm 0.00 in0.0 mm
06:20 AM 75.1°F23.9°C 64.6°F18.1°C 70% Calm Calm -- 30.15 in1021.0 mb - 0.00 in0.0 mm 0.00 in0.0 mm
06:25 AM 75.4°F24.1°C 64.9°F18.3°C 70% Calm Calm -- 30.15 in1021.0 mb - 0.00 in0.0 mm 0.00 in0.0 mm
06:30 AM 75.9°F24.4°C 65.4°F18.6°C 70% Calm Calm 1.2 mph1.9 kmh 30.15 in1021.0 mb - 0.00 in0.0 mm 0.00 in0.0 mm
06:35 AM 76.6°F24.8°C 65.7°F18.7°C 69% Calm Calm 2.3 mph3.7 kmh 30.15 in1021.0 mb - 0.00 in0.0 mm 0.00 in0.0 mm
06:40 AM 77.6°F25.3°C 66.2°F19.0°C 68% 1.2 mph W1.9 kmh W 3.5 mph5.6 kmh 30.15 in1021.0 mb - 0.00 in0.0 mm 0.00 in0.0 mm
06:45 AM 78.6°F25.9°C 64.5°F18.1°C 62% 1.2 mph ESE1.9 kmh ESE 2.3 mph3.7 kmh 30.15 in1021.0 mb - 0.00 in0.0 mm 0.00 in0.0 mm
06:50 AM 79.3°F26.3°C 63.8°F17.7°C 59% 1.2 mph E1.9 kmh E 3.5 mph5.6 kmh 30.15 in1021.0 mb - 0.00 in0.0 mm 0.00 in0.0 mm
06:55 AM 80.2°F26.8°C 63.1°F17.3°C 56% 1.2 mph E1.9 kmh E 2.3 mph3.7 kmh 30.15 in1021.0 mb - 0.00 in0.0 mm 0.00 in0.0 mm
07:00 AM 80.9°F27.2°C 63.8°F17.7°C 56% 2.3 mph E3.7 kmh E 3.5 mph5.6 kmh 30.15 in1021.0 mb - 0.00 in0.0 mm 0.00 in0.0 mm
07:10 AM 82.0°F27.8°C 64.3°F17.9°C 55% 1.2 mph E1.9 kmh E 2.3 mph3.7 kmh 30.15 in1021.0 mb - 0.00 in0.0 mm 0.00 in0.0 mm
07:15 AM 82.6°F28.1°C 64.8°F18.2°C 55% Calm Calm 1.2 mph1.9 kmh 30.15 in1021.0 mb - 0.00 in0.0 mm 0.00 in0.0 mm
07:20 AM 83.0°F28.3°C 65.2°F18.4°C 55% 2.3 mph NW3.7 kmh NW 3.5 mph5.6 kmh 30.15 in1021.0 mb - 0.00 in0.0 mm 0.00 in0.0 mm
07:25 AM 83.1°F28.4°C 65.3°F18.5°C 55% 1.2 mph NW1.9 kmh NW 2.3 mph3.7 kmh 30.15 in1021.0 mb - 0.00 in0.0 mm 0.00 in0.0 mm
07:30 AM 83.4°F28.6°C 64.5°F18.1°C 53% Calm Calm 2.3 mph3.7 kmh 30.15 in1021.0 mb - 0.00 in0.0 mm 0.00 in0.0 mm
07:35 AM 84.0°F28.9°C 64.5°F18.1°C 52% 3.5 mph E5.6 kmh E 4.6 mph7.4 kmh 30.16 in1021.3 mb - 0.00 in0.0 mm 0.00 in0.0 mm
07:40 AM 84.4°F29.1°C 64.3°F17.9°C 51% 3.5 mph E5.6 kmh E 3.5 mph5.6 kmh 30.15 in1021.0 mb - 0.00 in0.0 mm 0.00 in0.0 mm
07:45 AM 84.7°F29.3°C 64.0°F17.8°C 50% 1.2 mph E1.9 kmh E 2.3 mph3.7 kmh 30.15 in1021.0 mb - 0.00 in0.0 mm 0.00 in0.0 mm
07:50 AM 85.0°F29.4°C 64.3°F17.9°C 50% 1.2 mph E1.9 kmh E 3.5 mph5.6 kmh 30.15 in1021.0 mb - 0.00 in0.0 mm 0.00 in0.0 mm
07:55 AM 85.4°F29.7°C 64.0°F17.8°C 49% Calm Calm 3.5 mph5.6 kmh 30.15 in1021.0 mb - 0.00 in0.0 mm 0.00 in0.0 mm
08:00 AM 85.9°F29.9°C 64.6°F18.1°C 49% 2.3 mph ESE3.7 kmh ESE 3.5 mph5.6 kmh 30.15 in1021.0 mb - 0.00 in0.0 mm 0.00 in0.0 mm
08:10 AM 86.5°F30.3°C 64.5°F18.1°C 48% 1.2 mph ESE1.9 kmh ESE 1.2 mph1.9 kmh 30.16 in1021.3 mb - 0.00 in0.0 mm 0.00 in0.0 mm
08:15 AM 86.9°F30.5°C 64.8°F18.2°C 48% 1.2 mph ESE1.9 kmh ESE 1.2 mph1.9 kmh 30.15 in1021.0 mb - 0.00 in0.0 mm 0.00 in0.0 mm
08:20 AM 87.6°F30.9°C 64.9°F18.3°C 47% 2.3 mph ESE3.7 kmh ESE 3.5 mph5.6 kmh 30.15 in1021.0 mb - 0.00 in0.0 mm 0.00 in0.0 mm
08:25 AM 88.1°F31.2°C 65.4°F18.6°C 47% 1.2 mph SE1.9 kmh SE 1.2 mph1.9 kmh 30.15 in1021.0 mb - 0.00 in0.0 mm 0.00 in0.0 mm
08:30 AM 88.5°F31.4°C 65.1°F18.4°C 46% 2.3 mph E3.7 kmh E 3.5 mph5.6 kmh 30.15 in1021.0 mb - 0.00 in0.0 mm 0.00 in0.0 mm
08:35 AM 88.7°F31.5°C 65.3°F18.5°C 46% Calm Calm 3.5 mph5.6 kmh 30.15 in1021.0 mb - 0.00 in0.0 mm 0.00 in0.0 mm
08:40 AM 88.7°F31.5°C 65.9°F18.8°C 47% 2.3 mph SE3.7 kmh SE 3.5 mph5.6 kmh 30.15 in1021.0 mb - 0.00 in0.0 mm 0.00 in0.0 mm
08:45 AM 88.9°F31.6°C 65.4°F18.6°C 46% 2.3 mph SE3.7 kmh SE 3.5 mph5.6 kmh 30.15 in1021.0 mb - 0.00 in0.0 mm 0.00 in0.0 mm
08:50 AM 88.9°F31.6°C 65.5°F18.6°C 46% Calm Calm 1.2 mph1.9 kmh 30.15 in1021.0 mb - 0.00 in0.0 mm 0.00 in0.0 mm
08:55 AM 89.4°F31.9°C 65.9°F18.8°C 46% 1.2 mph SSW1.9 kmh SSW 2.3 mph3.7 kmh 30.15 in1021.0 mb - 0.00 in0.0 mm 0.00 in0.0 mm
09:00 AM 89.7°F32.1°C 66.2°F19.0°C 46% 1.2 mph SW1.9 kmh SW 2.3 mph3.7 kmh 30.15 in1021.0 mb - 0.00 in0.0 mm 0.00 in0.0 mm
09:10 AM 90.6°F32.6°C 66.3°F19.1°C 45% 1.2 mph WSW1.9 kmh WSW 2.3 mph3.7 kmh 30.15 in1021.0 mb - 0.00 in0.0 mm 0.00 in0.0 mm
09:15 AM 90.8°F32.7°C 65.9°F18.8°C 44% 3.5 mph NNW5.6 kmh NNW 8.1 mph13.0 kmh 30.15 in1021.0 mb - 0.00 in0.0 mm 0.00 in0.0 mm
09:20 AM 90.7°F32.6°C 65.2°F18.4°C 43% 8.1 mph NNE13.0 kmh NNE 11.5 mph18.5 kmh 30.15 in1021.0 mb - 0.00 in0.0 mm 0.00 in0.0 mm
09:25 AM 90.4°F32.4°C 64.9°F18.3°C 43% 10.4 mph N16.7 kmh N 12.7 mph20.4 kmh 30.15 in1021.0 mb - 0.00 in0.0 mm 0.00 in0.0 mm
09:30 AM 90.4°F32.4°C 64.9°F18.3°C 43% 10.4 mph NNE16.7 kmh NNE 12.7 mph20.4 kmh 30.15 in1021.0 mb - 0.00 in0.0 mm 0.00 in0.0 mm
09:35 AM 90.6°F32.6°C 65.7°F18.7°C 44% 8.1 mph NE13.0 kmh NE 9.2 mph14.8 kmh 30.15 in1021.0 mb - 0.00 in0.0 mm 0.00 in0.0 mm
09:40 AM 90.9°F32.7°C 64.7°F18.2°C 42% 10.4 mph N16.7 kmh N 13.8 mph22.2 kmh 30.15 in1021.0 mb - 0.00 in0.0 mm 0.00 in0.0 mm
09:45 AM 91.2°F32.9°C 64.9°F18.3°C 42% 9.2 mph N14.8 kmh N 11.5 mph18.5 kmh 30.15 in1021.0 mb - 0.00 in0.0 mm 0.00 in0.0 mm
09:50 AM 91.4°F33.0°C 65.7°F18.7°C 43% 6.9 mph N11.1 kmh N 11.5 mph18.5 kmh 30.15 in1021.0 mb - 0.00 in0.0 mm 0.00 in0.0 mm
09:55 AM 91.4°F33.0°C 65.1°F18.4°C 42% 11.5 mph N18.5 kmh N 13.8 mph22.2 kmh 30.15 in1021.0 mb - 0.00 in0.0 mm 0.00 in0.0 mm
10:00 AM 91.2°F32.9°C 64.9°F18.3°C 42% 10.4 mph NNE16.7 kmh NNE 19.6 mph31.5 kmh 30.15 in1021.0 mb - 0.00 in0.0 mm 0.00 in0.0 mm
10:10 AM 91.5°F33.1°C 65.2°F18.4°C 42% 10.4 mph NNE16.7 kmh NNE 12.7 mph20.4 kmh 30.15 in1021.0 mb - 0.00 in0.0 mm 0.00 in0.0 mm
10:15 AM 91.4°F33.0°C 65.8°F18.8°C 43% 10.4 mph N16.7 kmh N 11.5 mph18.5 kmh 30.15 in1021.0 mb - 0.00 in0.0 mm 0.00 in0.0 mm
10:20 AM 91.6°F33.1°C 65.3°F18.5°C 42% 9.2 mph NNE14.8 kmh NNE 13.8 mph22.2 kmh 30.15 in1021.0 mb - 0.00 in0.0 mm 0.00 in0.0 mm
10:25 AM 91.6°F33.1°C 65.9°F18.8°C 43% 8.1 mph N13.0 kmh N 13.8 mph22.2 kmh 30.15 in1021.0 mb - 0.00 in0.0 mm 0.00 in0.0 mm
10:30 AM 91.6°F33.1°C 65.9°F18.8°C 43% 9.2 mph NNE14.8 kmh NNE 10.4 mph16.7 kmh 30.15 in1021.0 mb - 0.00 in0.0 mm 0.00 in0.0 mm
10:35 AM 91.9°F33.3°C 66.2°F19.0°C 43% 8.1 mph N13.0 kmh N 10.4 mph16.7 kmh 30.14 in1020.7 mb - 0.00 in0.0 mm 0.00 in0.0 mm
10:40 AM 92.3°F33.5°C 65.9°F18.8°C 42% 12.7 mph N20.4 kmh N 12.7 mph20.4 kmh 30.14 in1020.7 mb - 0.00 in0.0 mm 0.00 in0.0 mm
10:45 AM 92.2°F33.4°C 66.5°F19.2°C 43% 10.4 mph NE16.7 kmh NE 19.6 mph31.5 kmh 30.14 in1020.7 mb - 0.00 in0.0 mm 0.00 in0.0 mm
10:50 AM 92.2°F33.4°C 66.5°F19.2°C 43% 6.9 mph NNE11.1 kmh NNE 10.4 mph16.7 kmh 30.14 in1020.7 mb - 0.00 in0.0 mm 0.00 in0.0 mm
10:55 AM 92.6°F33.7°C 66.1°F18.9°C 42% 11.5 mph NNW18.5 kmh NNW 12.7 mph20.4 kmh 30.14 in1020.7 mb - 0.00 in0.0 mm 0.00 in0.0 mm
11:00 AM 92.6°F33.7°C 66.2°F19.0°C 42% 10.4 mph NE16.7 kmh NE 16.1 mph25.9 kmh 30.14 in1020.7 mb - 0.00 in0.0 mm 0.00 in0.0 mm
11:10 AM 92.6°F33.7°C 66.2°F19.0°C 42% 8.1 mph N13.0 kmh N 12.7 mph20.4 kmh 30.14 in1020.7 mb - 0.00 in0.0 mm 0.00 in0.0 mm
11:15 AM 92.6°F33.7°C 66.1°F18.9°C 42% 10.4 mph NNE16.7 kmh NNE 15.0 mph24.1 kmh 30.14 in1020.7 mb - 0.00 in0.0 mm 0.00 in0.0 mm
11:20 AM 92.7°F33.7°C 66.9°F19.4°C 43% 10.4 mph N16.7 kmh N 16.1 mph25.9 kmh 30.14 in1020.7 mb - 0.00 in0.0 mm 0.00 in0.0 mm
11:25 AM 92.8°F33.8°C 66.3°F19.1°C 42% 9.2 mph N14.8 kmh N 10.4 mph16.7 kmh 30.14 in1020.7 mb - 0.00 in0.0 mm 0.00 in0.0 mm
11:30 AM 92.8°F33.8°C 67.0°F19.4°C 43% 10.4 mph N16.7 kmh N 12.7 mph20.4 kmh 30.14 in1020.7 mb - 0.00 in0.0 mm 0.00 in0.0 mm
11:35 AM 93.1°F33.9°C 67.3°F19.6°C 43% 10.4 mph N16.7 kmh N 16.1 mph25.9 kmh 30.14 in1020.7 mb - 0.00 in0.0 mm 0.00 in0.0 mm
11:40 AM 92.9°F33.8°C 67.2°F19.6°C 43% 9.2 mph NE14.8 kmh NE 13.8 mph22.2 kmh 30.14 in1020.7 mb - 0.00 in0.0 mm 0.00 in0.0 mm
11:45 AM 93.0°F33.9°C 67.9°F19.9°C 44% 6.9 mph N11.1 kmh N 9.2 mph14.8 kmh 30.14 in1020.7 mb - 0.00 in0.0 mm 0.00 in0.0 mm
11:50 AM 93.4°F34.1°C 67.5°F19.7°C 43% 6.9 mph NNE11.1 kmh NNE 11.5 mph18.5 kmh 30.14 in1020.7 mb - 0.00 in0.0 mm 0.00 in0.0 mm
11:55 AM 93.4°F34.1°C 66.9°F19.4°C 42% 6.9 mph NNE11.1 kmh NNE 9.2 mph14.8 kmh 30.14 in1020.7 mb - 0.00 in0.0 mm 0.00 in0.0 mm
12:00 PM 93.5°F34.2°C 67.6°F19.8°C 43% 8.1 mph NE13.0 kmh NE 11.5 mph18.5 kmh 30.14 in1020.7 mb - 0.00 in0.0 mm 0.00 in0.0 mm
12:10 PM 94.1°F34.5°C 67.5°F19.7°C 42% 11.5 mph N18.5 kmh N 12.7 mph20.4 kmh 30.14 in1020.7 mb - 0.00 in0.0 mm 0.00 in0.0 mm
12:15 PM 94.1°F34.5°C 67.5°F19.7°C 42% 9.2 mph NNE14.8 kmh NNE 13.8 mph22.2 kmh 30.14 in1020.7 mb - 0.00 in0.0 mm 0.00 in0.0 mm
12:20 PM 94.3°F34.6°C 67.7°F19.8°C 42% 10.4 mph N16.7 kmh N 13.8 mph22.2 kmh 30.14 in1020.7 mb - 0.00 in0.0 mm 0.00 in0.0 mm
12:25 PM 94.2°F34.6°C 66.9°F19.4°C 41% 6.9 mph NE11.1 kmh NE 10.4 mph16.7 kmh 30.14 in1020.7 mb - 0.00 in0.0 mm 0.00 in0.0 mm
12:30 PM 94.5°F34.7°C 67.2°F19.6°C 41% 8.1 mph N13.0 kmh N 12.7 mph20.4 kmh 30.13 in1020.3 mb - 0.00 in0.0 mm 0.00 in0.0 mm
12:35 PM 94.5°F34.7°C 67.2°F19.6°C 41% 9.2 mph N14.8 kmh N 11.5 mph18.5 kmh 30.13 in1020.3 mb - 0.00 in0.0 mm 0.00 in0.0 mm
12:40 PM 94.8°F34.9°C 68.1°F20.1°C 42% 9.2 mph N14.8 kmh N 15.0 mph24.1 kmh 30.13 in1020.3 mb - 0.00 in0.0 mm 0.00 in0.0 mm
12:45 PM 94.5°F34.7°C 67.9°F19.9°C 42% 8.1 mph N13.0 kmh N 11.5 mph18.5 kmh 30.13 in1020.3 mb - 0.00 in0.0 mm 0.00 in0.0 mm
12:50 PM 94.1°F34.5°C 67.5°F19.7°C 42% 6.9 mph NE11.1 kmh NE 11.5 mph18.5 kmh 30.13 in1020.3 mb - 0.00 in0.0 mm 0.00 in0.0 mm
12:55 PM 94.4°F34.7°C 67.8°F19.9°C 42% 10.4 mph N16.7 kmh N 17.3 mph27.8 kmh 30.12 in1020.0 mb - 0.00 in0.0 mm 0.00 in0.0 mm
01:00 PM 94.6°F34.8°C 67.2°F19.6°C 41% 9.2 mph NNE14.8 kmh NNE 15.0 mph24.1 kmh 30.12 in1020.0 mb - 0.00 in0.0 mm 0.00 in0.0 mm
01:10 PM 94.6°F34.8°C 68.0°F20.0°C 42% 10.4 mph NE16.7 kmh NE 11.5 mph18.5 kmh 30.12 in1020.0 mb - 0.00 in0.0 mm 0.00 in0.0 mm
01:15 PM 94.7°F34.8°C 68.0°F20.0°C 42% 9.2 mph NE14.8 kmh NE 11.5 mph18.5 kmh 30.12 in1020.0 mb - 0.00 in0.0 mm 0.00 in0.0 mm
01:20 PM 94.7°F34.8°C 68.0°F20.0°C 42% 8.1 mph NNW13.0 kmh NNW 13.8 mph22.2 kmh 30.11 in1019.6 mb - 0.00 in0.0 mm 0.00 in0.0 mm
01:25 PM 94.8°F34.9°C 66.8°F19.3°C 40% 11.5 mph NNE18.5 kmh NNE 16.1 mph25.9 kmh 30.11 in1019.6 mb - 0.00 in0.0 mm 0.00 in0.0 mm
01:30 PM 94.8°F34.9°C 67.4°F19.7°C 41% 9.2 mph NNE14.8 kmh NNE 13.8 mph22.2 kmh 30.11 in1019.6 mb - 0.00 in0.0 mm 0.00 in0.0 mm
01:35 PM 94.8°F34.9°C 67.4°F19.7°C 41% 9.2 mph NNE14.8 kmh NNE 12.7 mph20.4 kmh 30.11 in1019.6 mb - 0.00 in0.0 mm 0.00 in0.0 mm
01:40 PM 94.7°F34.8°C 68.0°F20.0°C 42% 9.2 mph NNE14.8 kmh NNE 12.7 mph20.4 kmh 30.11 in1019.6 mb - 0.00 in0.0 mm 0.00 in0.0 mm
01:45 PM 94.8°F34.9°C 67.4°F19.7°C 41% 12.7 mph NE20.4 kmh NE 13.8 mph22.2 kmh 30.11 in1019.6 mb - 0.00 in0.0 mm 0.00 in0.0 mm
01:50 PM 94.8°F34.9°C 68.1°F20.1°C 42% 12.7 mph NE20.4 kmh NE 17.3 mph27.8 kmh 30.11 in1019.6 mb - 0.00 in0.0 mm 0.00 in0.0 mm
01:55 PM 94.8°F34.9°C 67.5°F19.7°C 41% 9.2 mph NE14.8 kmh NE 15.0 mph24.1 kmh 30.11 in1019.6 mb - 0.00 in0.0 mm 0.00 in0.0 mm
02:00 PM 95.0°F35.0°C 67.6°F19.8°C 41% 11.5 mph NNE18.5 kmh NNE 17.3 mph27.8 kmh 30.11 in1019.6 mb - 0.00 in0.0 mm 0.00 in0.0 mm
02:10 PM 95.0°F35.0°C 66.9°F19.4°C 40% 8.1 mph NE13.0 kmh NE 10.4 mph16.7 kmh 30.11 in1019.6 mb - 0.00 in0.0 mm 0.00 in0.0 mm
02:15 PM 95.1°F35.1°C 67.7°F19.8°C 41% 9.2 mph NE14.8 kmh NE 11.5 mph18.5 kmh 30.11 in1019.6 mb - 0.00 in0.0 mm 0.00 in0.0 mm
02:20 PM 95.5°F35.3°C 68.7°F20.4°C 42% 6.9 mph NNE11.1 kmh NNE 13.8 mph22.2 kmh 30.11 in1019.6 mb - 0.00 in0.0 mm 0.00 in0.0 mm
02:25 PM 95.8°F35.4°C 68.3°F20.2°C 41% 9.2 mph NE14.8 kmh NE 13.8 mph22.2 kmh 30.11 in1019.6 mb - 0.00 in0.0 mm 0.00 in0.0 mm
02:30 PM 95.5°F35.3°C 66.6°F19.2°C 39% 10.4 mph NE16.7 kmh NE 11.5 mph18.5 kmh 30.11 in1019.6 mb - 0.00 in0.0 mm 0.00 in0.0 mm
02:35 PM 95.5°F35.3°C 68.1°F20.1°C 41% 6.9 mph NNE11.1 kmh NNE 12.7 mph20.4 kmh 30.10 in1019.3 mb - 0.00 in0.0 mm 0.00 in0.0 mm
02:40 PM 95.5°F35.3°C 67.4°F19.7°C 40% 10.4 mph NE16.7 kmh NE 15.0 mph24.1 kmh 30.10 in1019.3 mb - 0.00 in0.0 mm 0.00 in0.0 mm
02:45 PM 95.5°F35.3°C 68.1°F20.1°C 41% 5.8 mph NE9.3 kmh NE 16.1 mph25.9 kmh 30.10 in1019.3 mb - 0.00 in0.0 mm 0.00 in0.0 mm
02:50 PM 95.7°F35.4°C 67.5°F19.7°C 40% 11.5 mph NNE18.5 kmh NNE 12.7 mph20.4 kmh 30.10 in1019.3 mb - 0.00 in0.0 mm 0.00 in0.0 mm
02:55 PM 95.4°F35.2°C 67.2°F19.6°C 40% 5.8 mph NE9.3 kmh NE 11.5 mph18.5 kmh 30.10 in1019.3 mb - 0.00 in0.0 mm 0.00 in0.0 mm
03:00 PM 95.4°F35.2°C 68.0°F20.0°C 41% 9.2 mph NE14.8 kmh NE 13.8 mph22.2 kmh 30.10 in1019.3 mb - 0.00 in0.0 mm 0.00 in0.0 mm
03:10 PM 95.7°F35.4°C 68.3°F20.2°C 41% 4.6 mph NE7.4 kmh NE 6.9 mph11.1 kmh 30.10 in1019.3 mb - 0.00 in0.0 mm 0.00 in0.0 mm
03:15 PM 95.4°F35.2°C 67.9°F19.9°C 41% 11.5 mph NE18.5 kmh NE 16.1 mph25.9 kmh 30.10 in1019.3 mb - 0.00 in0.0 mm 0.00 in0.0 mm
03:20 PM 94.8°F34.9°C 68.1°F20.1°C 42% 8.1 mph NE13.0 kmh NE 12.7 mph20.4 kmh 30.10 in1019.3 mb - 0.00 in0.0 mm 0.00 in0.0 mm
03:25 PM 94.9°F34.9°C 68.9°F20.5°C 43% 8.1 mph NNE13.0 kmh NNE 13.8 mph22.2 kmh 30.10 in1019.3 mb - 0.00 in0.0 mm 0.00 in0.0 mm
03:30 PM 95.0°F35.0°C 69.0°F20.6°C 43% 6.9 mph NE11.1 kmh NE 13.8 mph22.2 kmh 30.10 in1019.3 mb - 0.00 in0.0 mm 0.00 in0.0 mm
03:35 PM 95.0°F35.0°C 69.0°F20.6°C 43% 6.9 mph NE11.1 kmh NE 11.5 mph18.5 kmh 30.10 in1019.3 mb - 0.00 in0.0 mm 0.00 in0.0 mm
03:40 PM 95.1°F35.1°C 69.1°F20.6°C 43% 8.1 mph NNE13.0 kmh NNE 11.5 mph18.5 kmh 30.10 in1019.3 mb - 0.00 in0.0 mm 0.00 in0.0 mm
03:45 PM 95.1°F35.1°C 69.1°F20.6°C 43% 8.1 mph NE13.0 kmh NE 12.7 mph20.4 kmh 30.09 in1019.0 mb - 0.00 in0.0 mm 0.00 in0.0 mm
03:50 PM 95.0°F35.0°C 69.0°F20.6°C 43% 9.2 mph NE14.8 kmh NE 15.0 mph24.1 kmh 30.09 in1019.0 mb - 0.00 in0.0 mm 0.00 in0.0 mm
03:55 PM 94.8°F34.9°C 69.5°F20.8°C 44% 6.9 mph NE11.1 kmh NE 10.4 mph16.7 kmh 30.09 in1019.0 mb - 0.00 in0.0 mm 0.00 in0.0 mm
04:00 PM 94.8°F34.9°C 69.5°F20.8°C 44% 8.1 mph N13.0 kmh N 9.2 mph14.8 kmh 30.09 in1019.0 mb - 0.00 in0.0 mm 0.00 in0.0 mm
04:10 PM 94.8°F34.9°C 69.5°F20.8°C 44% 8.1 mph ENE13.0 kmh ENE 11.5 mph18.5 kmh 30.09 in1019.0 mb - 0.00 in0.0 mm 0.00 in0.0 mm
04:15 PM 94.8°F34.9°C 69.4°F20.8°C 44% 6.9 mph ENE11.1 kmh ENE 9.2 mph14.8 kmh 30.09 in1019.0 mb - 0.00 in0.0 mm 0.00 in0.0 mm
04:20 PM 94.8°F34.9°C 69.5°F20.8°C 44% 10.4 mph NE16.7 kmh NE 16.1 mph25.9 kmh 30.08 in1018.6 mb - 0.00 in0.0 mm 0.00 in0.0 mm
04:25 PM 95.0°F35.0°C 69.7°F20.9°C 44% 9.2 mph NE14.8 kmh NE 12.7 mph20.4 kmh 30.08 in1018.6 mb - 0.00 in0.0 mm 0.00 in0.0 mm
04:30 PM 95.1°F35.1°C 69.8°F21.0°C 44% 9.2 mph NE14.8 kmh NE 13.8 mph22.2 kmh 30.08 in1018.6 mb - 0.00 in0.0 mm 0.00 in0.0 mm
04:35 PM 94.9°F34.9°C 69.6°F20.9°C 44% 6.9 mph NNE11.1 kmh NNE 9.2 mph14.8 kmh 30.08 in1018.6 mb - 0.00 in0.0 mm 0.00 in0.0 mm
04:40 PM 95.1°F35.1°C 69.7°F20.9°C 44% 6.9 mph NNE11.1 kmh NNE 11.5 mph18.5 kmh 30.08 in1018.6 mb - 0.00 in0.0 mm 0.00 in0.0 mm
04:45 PM 95.3°F35.2°C 69.9°F21.1°C 44% 8.1 mph NNE13.0 kmh NNE 11.5 mph18.5 kmh 30.08 in1018.6 mb - 0.00 in0.0 mm 0.00 in0.0 mm
04:50 PM 95.4°F35.2°C 70.0°F21.1°C 44% 8.1 mph NE13.0 kmh NE 11.5 mph18.5 kmh 30.08 in1018.6 mb - 0.00 in0.0 mm 0.00 in0.0 mm
04:55 PM 95.4°F35.2°C 70.7°F21.5°C 45% 2.3 mph NE3.7 kmh NE 11.5 mph18.5 kmh 30.08 in1018.6 mb - 0.00 in0.0 mm 0.00 in0.0 mm
05:00 PM 95.1°F35.1°C 70.4°F21.3°C 45% 5.8 mph NE9.3 kmh NE 9.2 mph14.8 kmh 30.08 in1018.6 mb - 0.00 in0.0 mm 0.00 in0.0 mm
05:10 PM 94.7°F34.8°C 69.4°F20.8°C 44% 6.9 mph NNE11.1 kmh NNE 10.4 mph16.7 kmh 30.08 in1018.6 mb - 0.00 in0.0 mm 0.00 in0.0 mm
05:15 PM 94.7°F34.8°C 70.1°F21.2°C 45% 5.8 mph NE9.3 kmh NE 6.9 mph11.1 kmh 30.08 in1018.6 mb - 0.00 in0.0 mm 0.00 in0.0 mm
05:20 PM 94.7°F34.8°C 70.1°F21.2°C 45% 3.5 mph NE5.6 kmh NE 5.8 mph9.3 kmh 30.08 in1018.6 mb - 0.00 in0.0 mm 0.00 in0.0 mm
05:25 PM 94.7°F34.8°C 70.7°F21.5°C 46% 5.8 mph E9.3 kmh E 11.5 mph18.5 kmh 30.08 in1018.6 mb - 0.00 in0.0 mm 0.00 in0.0 mm
05:30 PM 94.4°F34.7°C 69.1°F20.6°C 44% 6.9 mph NE11.1 kmh NE 9.2 mph14.8 kmh 30.08 in1018.6 mb - 0.00 in0.0 mm 0.00 in0.0 mm
05:35 PM 94.3°F34.6°C 69.7°F20.9°C 45% 5.8 mph NE9.3 kmh NE 9.2 mph14.8 kmh 30.08 in1018.6 mb - 0.00 in0.0 mm 0.00 in0.0 mm
05:40 PM 94.3°F34.6°C 70.3°F21.3°C 46% 6.9 mph NNE11.1 kmh NNE 10.4 mph16.7 kmh 30.08 in1018.6 mb - 0.00 in0.0 mm 0.00 in0.0 mm
05:45 PM 94.4°F34.7°C 70.4°F21.3°C 46% 4.6 mph NE7.4 kmh NE 9.2 mph14.8 kmh 30.08 in1018.6 mb - 0.00 in0.0 mm 0.00 in0.0 mm
05:50 PM 94.3°F34.6°C 69.7°F20.9°C 45% 5.8 mph NNE9.3 kmh NNE 10.4 mph16.7 kmh 30.08 in1018.6 mb - 0.00 in0.0 mm 0.00 in0.0 mm
05:55 PM 94.2°F34.6°C 70.2°F21.2°C 46% 3.5 mph NE5.6 kmh NE 4.6 mph7.4 kmh 30.08 in1018.6 mb - 0.00 in0.0 mm 0.00 in0.0 mm
06:00 PM 94.1°F34.5°C 70.2°F21.2°C 46% 6.9 mph NNE11.1 kmh NNE 9.2 mph14.8 kmh 30.08 in1018.6 mb - 0.00 in0.0 mm 0.00 in0.0 mm
06:10 PM 93.9°F34.4°C 70.0°F21.1°C 46% 4.6 mph NE7.4 kmh NE 5.8 mph9.3 kmh 30.08 in1018.6 mb - 0.00 in0.0 mm 0.00 in0.0 mm
06:15 PM 93.7°F34.3°C 69.8°F21.0°C 46% 5.8 mph NE9.3 kmh NE 11.5 mph18.5 kmh 30.08 in1018.6 mb - 0.00 in0.0 mm 0.00 in0.0 mm
06:20 PM 93.6°F34.2°C 69.7°F20.9°C 46% 5.8 mph NE9.3 kmh NE 10.4 mph16.7 kmh 30.08 in1018.6 mb - 0.00 in0.0 mm 0.00 in0.0 mm
06:25 PM 93.6°F34.2°C 69.7°F20.9°C 46% 4.6 mph NE7.4 kmh NE 3.5 mph5.6 kmh 30.08 in1018.6 mb - 0.00 in0.0 mm 0.00 in0.0 mm
06:30 PM 93.8°F34.3°C 69.9°F21.1°C 46% 3.5 mph NE5.6 kmh NE 5.8 mph9.3 kmh 30.08 in1018.6 mb - 0.00 in0.0 mm 0.00 in0.0 mm
06:35 PM 93.7°F34.3°C 69.8°F21.0°C 46% 3.5 mph ENE5.6 kmh ENE 5.8 mph9.3 kmh 30.08 in1018.6 mb - 0.00 in0.0 mm 0.00 in0.0 mm
06:40 PM 93.4°F34.1°C 69.5°F20.8°C 46% 4.6 mph ENE7.4 kmh ENE 6.9 mph11.1 kmh 30.08 in1018.6 mb - 0.00 in0.0 mm 0.00 in0.0 mm
06:45 PM 92.8°F33.8°C 69.6°F20.9°C 47% 4.6 mph NE7.4 kmh NE 5.8 mph9.3 kmh 30.08 in1018.6 mb - 0.00 in0.0 mm 0.00 in0.0 mm
06:50 PM 92.7°F33.7°C 69.5°F20.8°C 47% 4.6 mph ENE7.4 kmh ENE 8.1 mph13.0 kmh 30.08 in1018.6 mb - 0.00 in0.0 mm 0.00 in0.0 mm
06:55 PM 92.4°F33.6°C 69.3°F20.7°C 47% 4.6 mph NE7.4 kmh NE 4.6 mph7.4 kmh 30.08 in1018.6 mb - 0.00 in0.0 mm 0.00 in0.0 mm
07:00 PM 92.1°F33.4°C 69.6°F20.9°C 48% 3.5 mph NE5.6 kmh NE 10.4 mph16.7 kmh 30.08 in1018.6 mb - 0.00 in0.0 mm 0.00 in0.0 mm
07:10 PM 92.1°F33.4°C 68.3°F20.2°C 46% 5.8 mph NE9.3 kmh NE 11.5 mph18.5 kmh 30.08 in1018.6 mb - 0.00 in0.0 mm 0.00 in0.0 mm
07:15 PM 92.0°F33.3°C 68.3°F20.2°C 46% 2.3 mph NE3.7 kmh NE 3.5 mph5.6 kmh 30.08 in1018.6 mb - 0.00 in0.0 mm 0.00 in0.0 mm
07:20 PM 92.0°F33.3°C 68.9°F20.5°C 47% 4.6 mph NNE7.4 kmh NNE 4.6 mph7.4 kmh 30.08 in1018.6 mb - 0.00 in0.0 mm 0.00 in0.0 mm
07:25 PM 91.9°F33.3°C 68.8°F20.4°C 47% 5.8 mph NE9.3 kmh NE 5.8 mph9.3 kmh 30.08 in1018.6 mb - 0.00 in0.0 mm 0.00 in0.0 mm
07:30 PM 91.8°F33.2°C 68.7°F20.4°C 47% 4.6 mph NE7.4 kmh NE 5.8 mph9.3 kmh 30.08 in1018.6 mb - 0.00 in0.0 mm 0.00 in0.0 mm
07:35 PM 91.6°F33.1°C 68.6°F20.3°C 47% 2.3 mph NE3.7 kmh NE 2.3 mph3.7 kmh 30.08 in1018.6 mb - 0.00 in0.0 mm 0.00 in0.0 mm
07:40 PM 91.5°F33.1°C 69.0°F20.6°C 48% 2.3 mph NE3.7 kmh NE 3.5 mph5.6 kmh 30.09 in1019.0 mb - 0.00 in0.0 mm 0.00 in0.0 mm
07:45 PM 90.9°F32.7°C 69.7°F20.9°C 50% 3.5 mph E5.6 kmh E 3.5 mph5.6 kmh 30.09 in1019.0 mb - 0.00 in0.0 mm 0.00 in0.0 mm
07:50 PM 90.1°F32.3°C 70.6°F21.4°C 53% 3.5 mph E5.6 kmh E 3.5 mph5.6 kmh 30.09 in1019.0 mb - 0.00 in0.0 mm 0.00 in0.0 mm
07:55 PM 89.4°F31.9°C 70.5°F21.4°C 54% 2.3 mph E3.7 kmh E 3.5 mph5.6 kmh 30.09 in1019.0 mb - 0.00 in0.0 mm 0.00 in0.0 mm
08:00 PM 88.8°F31.6°C 70.5°F21.4°C 55% 3.5 mph E5.6 kmh E 3.5 mph5.6 kmh 30.09 in1019.0 mb - 0.00 in0.0 mm 0.00 in0.0 mm
08:10 PM 88.0°F31.1°C 70.9°F21.6°C 57% 4.6 mph E7.4 kmh E 8.1 mph13.0 kmh 30.09 in1019.0 mb - 0.00 in0.0 mm 0.00 in0.0 mm
08:15 PM 87.6°F30.9°C 71.0°F21.7°C 58% 3.5 mph E5.6 kmh E 4.6 mph7.4 kmh 30.10 in1019.3 mb - 0.00 in0.0 mm 0.00 in0.0 mm
08:20 PM 87.2°F30.7°C 70.6°F21.4°C 58% 4.6 mph E7.4 kmh E 9.2 mph14.8 kmh 30.10 in1019.3 mb - 0.00 in0.0 mm 0.00 in0.0 mm
08:25 PM 86.9°F30.5°C 70.9°F21.6°C 59% 4.6 mph E7.4 kmh E 6.9 mph11.1 kmh 30.09 in1019.0 mb - 0.00 in0.0 mm 0.00 in0.0 mm
08:30 PM 86.7°F30.4°C 70.6°F21.4°C 59% 2.3 mph E3.7 kmh E 3.5 mph5.6 kmh 30.10 in1019.3 mb - 0.00 in0.0 mm 0.00 in0.0 mm
08:35 PM 86.4°F30.2°C 70.4°F21.3°C 59% 4.6 mph E7.4 kmh E 5.8 mph9.3 kmh 30.10 in1019.3 mb - 0.00 in0.0 mm 0.00 in0.0 mm
08:40 PM 86.2°F30.1°C 70.7°F21.5°C 60% 3.5 mph ESE5.6 kmh ESE 5.8 mph9.3 kmh 30.10 in1019.3 mb - 0.00 in0.0 mm 0.00 in0.0 mm
08:45 PM 86.0°F30.0°C 70.5°F21.4°C 60% 3.5 mph E5.6 kmh E 3.5 mph5.6 kmh 30.10 in1019.3 mb - 0.00 in0.0 mm 0.00 in0.0 mm
08:50 PM 85.8°F29.9°C 70.3°F21.3°C 60% 3.5 mph E5.6 kmh E 3.5 mph5.6 kmh 30.10 in1019.3 mb - 0.00 in0.0 mm 0.00 in0.0 mm
08:55 PM 85.6°F29.8°C 70.1°F21.2°C 60% 2.3 mph E3.7 kmh E 3.5 mph5.6 kmh 30.10 in1019.3 mb - 0.00 in0.0 mm 0.00 in0.0 mm
09:00 PM 85.5°F29.7°C 70.5°F21.4°C 61% 1.2 mph E1.9 kmh E 3.5 mph5.6 kmh 30.10 in1019.3 mb - 0.00 in0.0 mm 0.00 in0.0 mm
09:10 PM 85.3°F29.6°C 69.8°F21.0°C 60% 4.6 mph E7.4 kmh E 8.1 mph13.0 kmh 30.11 in1019.6 mb - 0.00 in0.0 mm 0.00 in0.0 mm
09:15 PM 85.3°F29.6°C 69.8°F21.0°C 60% 3.5 mph E5.6 kmh E 3.5 mph5.6 kmh 30.11 in1019.6 mb - 0.00 in0.0 mm 0.00 in0.0 mm
09:20 PM 85.3°F29.6°C 69.8°F21.0°C 60% 4.6 mph ESE7.4 kmh ESE 5.8 mph9.3 kmh 30.11 in1019.6 mb - 0.00 in0.0 mm 0.00 in0.0 mm
09:25 PM 85.1°F29.5°C 69.7°F20.9°C 60% 3.5 mph ESE5.6 kmh ESE 3.5 mph5.6 kmh 30.11 in1019.6 mb - 0.00 in0.0 mm 0.00 in0.0 mm
09:30 PM 84.9°F29.4°C 69.5°F20.8°C 60% 4.6 mph ESE7.4 kmh ESE 6.9 mph11.1 kmh 30.11 in1019.6 mb - 0.00 in0.0 mm 0.00 in0.0 mm
09:35 PM 84.8°F29.3°C 69.4°F20.8°C 60% 4.6 mph ESE7.4 kmh ESE 5.8 mph9.3 kmh 30.11 in1019.6 mb - 0.00 in0.0 mm 0.00 in0.0 mm
09:40 PM 84.7°F29.3°C 69.8°F21.0°C 61% 3.5 mph ESE5.6 kmh ESE 5.8 mph9.3 kmh 30.11 in1019.6 mb - 0.00 in0.0 mm 0.00 in0.0 mm
09:45 PM 84.6°F29.2°C 69.7°F20.9°C 61% 3.5 mph E5.6 kmh E 5.8 mph9.3 kmh 30.11 in1019.6 mb - 0.00 in0.0 mm 0.00 in0.0 mm
09:50 PM 84.5°F29.2°C 69.1°F20.6°C 60% 3.5 mph ESE5.6 kmh ESE 5.8 mph9.3 kmh 30.11 in1019.6 mb - 0.00 in0.0 mm 0.00 in0.0 mm
09:55 PM 84.3°F29.1°C 68.9°F20.5°C 60% 3.5 mph ESE5.6 kmh ESE 3.5 mph5.6 kmh 30.11 in1019.6 mb - 0.00 in0.0 mm 0.00 in0.0 mm
10:00 PM 84.2°F29.0°C 68.8°F20.4°C 60% 2.3 mph SE3.7 kmh SE 3.5 mph5.6 kmh 30.11 in1019.6 mb - 0.00 in0.0 mm 0.00 in0.0 mm
10:10 PM 84.1°F28.9°C 68.2°F20.1°C 59% 3.5 mph ESE5.6 kmh ESE 8.1 mph13.0 kmh 30.11 in1019.6 mb - 0.00 in0.0 mm 0.00 in0.0 mm
10:15 PM 84.2°F29.0°C 68.3°F20.2°C 59% 2.3 mph E3.7 kmh E 3.5 mph5.6 kmh 30.11 in1019.6 mb - 0.00 in0.0 mm 0.00 in0.0 mm
10:20 PM 84.3°F29.1°C 68.4°F20.2°C 59% 3.5 mph ESE5.6 kmh ESE 5.8 mph9.3 kmh 30.11 in1019.6 mb - 0.00 in0.0 mm 0.00 in0.0 mm
10:25 PM 84.3°F29.1°C 67.9°F19.9°C 58% 2.3 mph E3.7 kmh E 3.5 mph5.6 kmh 30.11 in1019.6 mb - 0.00 in0.0 mm 0.00 in0.0 mm
10:30 PM 84.3°F29.1°C 67.9°F19.9°C 58% 3.5 mph E5.6 kmh E 5.8 mph9.3 kmh 30.11 in1019.6 mb - 0.00 in0.0 mm 0.00 in0.0 mm
10:35 PM 84.2°F29.0°C 67.8°F19.9°C 58% 2.3 mph ESE3.7 kmh ESE 3.5 mph5.6 kmh 30.11 in1019.6 mb - 0.00 in0.0 mm 0.00 in0.0 mm
10:40 PM 84.0°F28.9°C 67.6°F19.8°C 58% 3.5 mph ESE5.6 kmh ESE 5.8 mph9.3 kmh 30.11 in1019.6 mb - 0.00 in0.0 mm 0.00 in0.0 mm
10:45 PM 83.9°F28.8°C 67.5°F19.7°C 58% 3.5 mph E5.6 kmh E 3.5 mph5.6 kmh 30.12 in1020.0 mb - 0.00 in0.0 mm 0.00 in0.0 mm
10:50 PM 83.8°F28.8°C 67.4°F19.7°C 58% 3.5 mph E5.6 kmh E 5.8 mph9.3 kmh 30.11 in1019.6 mb - 0.00 in0.0 mm 0.00 in0.0 mm
10:55 PM 83.7°F28.7°C 67.4°F19.7°C 58% 3.5 mph E5.6 kmh E 5.8 mph9.3 kmh 30.11 in1019.6 mb - 0.00 in0.0 mm 0.00 in0.0 mm
11:00 PM 83.5°F28.6°C 67.7°F19.8°C 59% 4.6 mph E7.4 kmh E 8.1 mph13.0 kmh 30.12 in1020.0 mb - 0.00 in0.0 mm 0.00 in0.0 mm
11:10 PM 83.5°F28.6°C 67.2°F19.6°C 58% 3.5 mph E5.6 kmh E 5.8 mph9.3 kmh 30.12 in1020.0 mb - 0.00 in0.0 mm 0.00 in0.0 mm
11:15 PM 83.4°F28.6°C 67.1°F19.5°C 58% 1.2 mph E1.9 kmh E 3.5 mph5.6 kmh 30.12 in1020.0 mb - 0.00 in0.0 mm 0.00 in0.0 mm
11:20 PM 83.4°F28.6°C 67.0°F19.4°C 58% 2.3 mph E3.7 kmh E 3.5 mph5.6 kmh 30.11 in1019.6 mb - 0.00 in0.0 mm 0.00 in0.0 mm
11:25 PM 83.3°F28.5°C 67.0°F19.4°C 58% 2.3 mph E3.7 kmh E 3.5 mph5.6 kmh 30.11 in1019.6 mb - 0.00 in0.0 mm 0.00 in0.0 mm
11:30 PM 83.3°F28.5°C 66.9°F19.4°C 58% 3.5 mph E5.6 kmh E 4.6 mph7.4 kmh 30.11 in1019.6 mb - 0.00 in0.0 mm 0.00 in0.0 mm
11:35 PM 83.1°F28.4°C 66.8°F19.3°C 58% 2.3 mph E3.7 kmh E 3.5 mph5.6 kmh 30.12 in1020.0 mb - 0.00 in0.0 mm 0.00 in0.0 mm
11:40 PM 82.9°F28.3°C 66.6°F19.2°C 58% 3.5 mph E5.6 kmh E 3.5 mph5.6 kmh 30.11 in1019.6 mb - 0.00 in0.0 mm 0.00 in0.0 mm
11:45 PM 82.8°F28.2°C 67.0°F19.4°C 59% 2.3 mph E3.7 kmh E 3.5 mph5.6 kmh 30.11 in1019.6 mb - 0.00 in0.0 mm 0.00 in0.0 mm
11:50 PM 82.6°F28.1°C 66.8°F19.3°C 59% Calm Calm 1.2 mph1.9 kmh 30.11 in1019.6 mb - 0.00 in0.0 mm 0.00 in0.0 mm
11:55 PM 82.5°F28.1°C 66.7°F19.3°C 59% Calm Calm 2.3 mph3.7 kmh 30.11 in1019.6 mb - 0.00 in0.0 mm 0.00 in0.0 mm